Wind_Speed
9 8 7 6 6 5 4 3 2 1 1 2 3 3 4 4 4 5 5 6 6 6 7 7 8 8 7 7 8 8 8 8 9 8 9 9 9 8 8 9 9 9 10
9 8 8 6 6 5 4 4 3 2 1 1 2 3 3 4 4 5 5 5 6 6 7 7 8 7 7 8 8 8 8 8 8 8 9 9 9 9 9 9 10 11 11
9 8 8 7 7 6 5 5 4 3 3 1 1 2 3 3 3 4 4 4 5 5 6 7 7 7 7 8 8 8 8 8 8 8 9 8 9 9 10 11 11 11 11
9 9 9 8 7 7 6 5 4 4 3 2 1 1 2 3 3 3 4 4 4 5 5 5 5 5 6 7 7 7 8 9 9 8 9 9 9 10 10 11 11 11 11
10 9 9 9 8 7 6 6 5 3 3 2 1 1 1 2 2 2 3 4 4 4 4 4 4 4 6 6 6 6 7 8 9 8 9 9 10 10 11 11 11 11 11
11 10 10 9 8 8 6 6 5 4 2 1 1 0 1 2 2 2 3 3 4 4 3 3 4 4 5 6 6 5 6 7 8 8 8 9 10 10 11 11 11 10 10
12 11 11 10 10 9 8 6 5 4 2 2 2 2 1 1 2 3 3 4 4 3 2 2 3 4 4 5 5 4 6 7 8 8 9 9 10 10 11 10 9 9 9
13 12 11 11 11 9 7 7 5 4 4 3 3 3 2 1 1 2 4 4 3 3 2 2 2 4 3 3 4 4 6 7 8 9 10 10 9 8 9 8 10 9 9
14 13 13 12 11 10 9 7 6 5 5 5 5 4 3 1 1 1 3 3 2 1 2 2 2 3 4 4 4 5 5 7 7 8 8 8 8 7 6 8 9 9 9
13 13 13 13 12 11 11 11 9 8 7 6 6 6 4 3 2 1 1 1 1 1 2 2 2 3 3 4 4 5 6 6 7 7 8 7 6 5 5 7 9 9 8
13 12 13 13 12 11 11 11 11 10 8 7 7 7 6 5 4 3 1 1 1 1 2 2 2 3 3 3 3 4 5 6 7 7 6 6 5 5 5 6 7 8 9
12 12 12 12 12 11 10 11 11 10 9 8 8 7 7 6 6 4 3 2 2 2 2 2 2 2 1 2 3 5 5 5 6 6 6 6 5 5 5 6 6 7 8
13 12 12 12 12 11 11 11 11 11 10 9 8 8 7 6 6 6 5 4 3 3 1 1 1 1 2 2 3 4 4 5 6 6 5 5 5 6 6 6 6 7 8
13 13 12 12 11 11 11 11 11 10 11 10 9 8 6 5 5 6 5 5 4 4 2 1 1 1 1 2 2 3 4 4 5 5 5 5 5 6 6 6 5 6 7
13 13 13 12 11 11 11 11 11 11 10 9 9 8 7 6 6 5 5 4 4 4 3 2 2 2 2 2 2 3 3 5 5 5 4 5 5 5 5 5 5 5 6
12 12 12 12 11 11 11 11 11 10 10 9 9 9 8 7 6 6 5 5 5 5 4 3 3 2 2 2 3 3 4 5 5 4 4 5 5 5 5 6 6 7 7
12 12 12 11 11 11 11 11 11 11 10 10 9 8 8 7 7 5 5 5 5 5 5 4 4 3 3 2 2 3 4 5 4 4 4 5 6 6 6 7 8 8 8
12 11 11 12 12 12 10 10 10 11 10 10 9 8 7 7 7 6 6 6 5 5 6 5 5 4 4 4 4 4 4 4 5 5 5 6 7 7 8 7 8 9 9
10 10 10 10 11 11 11 9 9 9 9 9 8 8 8 7 7 7 8 7 6 5 5 5 5 5 5 4 4 4 4 5 5 5 6 6 7 8 8 8 8 9 10
9 9 9 9 10 10 10 10 9 8 8 8 8 8 8 8 7 7 8 8 8 7 6 6 5 6 6 5 5 5 5 6 7 7 7 8 8 8 9 9 10 10 10
8 8 9 9 9 9 9 8 9 9 8 8 8 8 8 8 8 8 8 8 8 8 7 7 7 7 7 6 7 7 7 8 8 8 9 9 9 9 10 11 11 11 12
7 7 8 8 9 9 8 8 8 8 8 9 9 9 9 8 9 9 9 9 8 8 8 8 7 7 7 7 8 8 8 9 9 10 10 10 10 11 12 12 13 13 13
6 7 7 8 8 8 9 9 8 8 8 9 9 10 10 10 10 10 10 11 10 9 9 8 8 8 8 8 9 9 9 10 10 11 11 11 11 12 13 13 14 15 15
6 6 6 7 7 8 8 8 8 8 8 9 9 10 10 10 10 11 11 11 11 11 10 9 9 9 10 10 11 11 11 12 11 11 11 12 12 13 13 14 15 16 16
5 6 6 7 8 8 8 8 9 9 9 9 10 10 11 11 11 12 12 11 12 12 11 11 11 11 11 11 12 12 12 13 13 12 12 12 13 14 14 15 16 16 18
5 6 6 7 8 8 9 9 9 10 10 10 11 12 12 12 13 13 14 13 13 14 13 13 13 13 13 13 14 14 14 14 14 14 14 14 15 15 16 17 17 18 18
Wind_Direction
19 14 14 26 33 35 44 46 54 80 169 212 221 228 231 237 243 248 249 252 255 259 263 264 264 259 257 256 252 254 252 246 245 243 249 249 244 244 246 241 244 248 249
20 20 20 25 33 40 48 52 59 75 90 166 215 233 240 240 246 251 248 253 259 264 268 269 263 254 256 256 256 254 248 246 248 248 251 250 250 247 246 244 248 252 256
27 29 28 31 38 46 54 56 57 59 71 100 186 238 243 238 242 251 249 256 259 262 267 268 260 254 257 257 253 250 247 248 249 251 253 255 252 249 248 251 251 256 257
31 30 31 35 42 46 55 52 54 64 66 76 89 219 221 226 242 256 256 268 262 263 266 261 254 257 255 252 246 246 248 249 251 252 253 253 253 253 255 254 253 256 256
33 34 33 36 45 45 46 48 53 54 56 68 79 188 235 242 244 242 262 270 257 260 259 253 244 251 253 250 244 243 248 247 250 255 258 258 257 253 254 253 256 258 258
34 36 37 40 44 46 45 43 48 45 52 50 23 96 184 237 239 254 258 253 248 249 251 251 249 251 250 257 254 245 242 246 253 259 262 263 263 257 254 254 254 255 257
36 39 42 39 43 43 39 36 39 46 52 52 60 70 105 208 238 243 248 249 252 257 252 257 255 263 263 261 256 247 248 257 256 261 264 262 261 259 257 254 249 246 250
39 37 39 41 42 42 38 33 33 49 65 72 80 77 100 133 255 255 246 239 241 257 252 262 266 261 277 273 258 259 261 267 264 267 262 258 257 261 260 251 245 243 247
38 37 38 41 44 46 42 42 49 63 70 75 77 78 81 95 110 231 226 221 226 261 258 261 277 263 270 272 268 276 284 292 285 274 273 267 260 261 253 244 241 241 243
38 38 42 43 48 52 48 46 51 56 63 74 76 74 83 89 83 99 136 180 212 288 301 282 278 273 283 278 279 285 289 290 290 286 282 276 266 251 239 237 238 242 245
39 40 43 46 49 53 51 51 51 51 61 76 77 72 72 73 72 72 68 48 338 327 329 303 283 285 284 279 281 288 296 298 289 283 278 272 268 256 247 243 241 245 247
44 46 48 50 52 54 52 54 57 59 63 69 80 75 70 66 63 56 51 28 12 9 342 303 292 283 270 283 292 295 302 302 294 286 279 274 262 252 252 253 254 253 253
44 45 48 50 52 51 51 54 58 61 65 70 73 70 66 60 52 49 43 42 48 43 26 321 308 270 279 295 307 311 311 306 297 287 277 274 270 261 253 257 265 260 261
45 45 47 50 55 54 55 54 56 59 59 59 60 65 62 54 49 54 53 48 41 27 17 353 360 336 308 314 310 312 317 307 299 288 275 281 286 279 263 256 260 261 259
46 46 47 50 54 56 58 56 58 59 61 61 57 57 50 44 52 54 43 41 37 30 29 33 43 18 353 333 306 311 313 322 317 299 289 287 286 284 270 252 254 260 266
44 44 46 48 52 52 54 57 57 56 56 57 56 54 48 48 54 48 41 36 39 35 34 36 21 13 4 339 325 336 332 329 323 322 301 292 290 292 285 274 268 269 269
45 48 49 48 49 49 52 55 55 52 54 53 51 49 47 47 46 42 37 33 32 31 24 17 359 359 1 355 347 340 335 335 328 319 310 303 299 297 293 282 277 273 274
45 47 46 47 48 47 47 51 51 51 50 51 50 47 46 41 40 33 27 29 29 24 16 9 6 356 356 2 359 349 342 336 328 324 317 309 303 298 294 287 276 272 276
43 44 42 45 46 46 47 49 48 48 45 45 46 41 37 36 32 25 23 22 19 14 4 358 359 359 352 350 348 343 335 328 326 323 318 309 301 299 296 293 290 283 280
37 40 39 39 42 42 43 43 41 35 30 32 33 32 32 31 27 20 14 9 5 2 354 346 349 353 349 336 328 327 320 315 312 311 308 304 299 300 297 297 296 292 290
29 35 37 36 37 36 35 35 33 30 27 24 23 23 22 20 14 7 2 357 352 348 346 343 338 339 338 331 323 317 312 309 306 302 302 300 296 296 296 296 296 293 293
23 28 32 32 33 31 27 25 22 20 17 13 10 8 4 2 357 352 346 343 340 339 336 335 332 331 325 321 320 319 315 305 298 296 296 296 294 293 297 298 296 294 293
19 24 25 22 20 21 20 16 13 11 8 5 4 0 356 352 349 344 337 332 330 328 326 325 326 324 318 315 314 313 313 310 304 301 297 296 294 293 293 295 296 294 291
12 15 14 10 10 9 9 8 7 4 358 353 350 349 346 342 338 337 333 326 324 323 320 317 314 315 312 310 309 308 307 306 299 297 296 295 295 293 293 293 295 294 291
2 2 0 356 358 359 358 359 356 353 350 346 343 342 339 336 332 329 327 325 322 321 318 314 312 307 307 308 310 310 309 305 301 300 296 294 294 293 293 294 294 294 292
345 347 350 346 346 349 351 350 348 346 342 338 335 333 331 328 326 324 324 322 318 319 317 313 309 308 308 307 307 308 307 305 302 299 296 296 294 292 291 294 295 294 293
Height
5867 5865 5863 5862 5861 5861 5860 5860 5860 5860 5860 5861 5862 5863 5863 5864 5865 5865 5866 5867 5867 5868 5868 5868 5868 5868 5869 5870 5870 5871 5871 5872 5873 5874 5875 5876 5876 5877 5878 5878 5879 5879 5880
5866 5865 5864 5862 5861 5860 5860 5859 5859 5859 5860 5860 5861 5862 5862 5863 5864 5864 5865 5866 5866 5867 5867 5867 5867 5868 5868 5869 5869 5869 5870 5871 5872 5873 5874 5874 5875 5876 5876 5877 5877 5878 5878
5867 5865 5863 5862 5861 5859 5859 5859 5859 5859 5859 5860 5860 5860 5861 5862 5862 5863 5864 5865 5865 5866 5866 5866 5866 5867 5867 5868 5868 5868 5869 5870 5871 5872 5872 5873 5874 5874 5875 5875 5876 5876 5876
5867 5865 5864 5862 5860 5859 5859 5859 5859 5859 5859 5859 5859 5860 5860 5861 5861 5862 5863 5863 5864 5865 5865 5865 5866 5866 5866 5867 5867 5867 5868 5869 5869 5870 5871 5872 5872 5873 5873 5873 5874 5874 5874
5868 5866 5864 5863 5861 5860 5859 5859 5859 5859 5859 5859 5859 5859 5859 5860 5860 5861 5861 5862 5863 5863 5864 5864 5865 5865 5865 5865 5866 5866 5867 5867 5868 5869 5870 5871 5871 5871 5871 5871 5872 5872 5872
5868 5866 5865 5863 5861 5860 5860 5859 5859 5858 5858 5858 5858 5858 5859 5859 5860 5860 5860 5860 5862 5862 5863 5863 5863 5864 5864 5865 5865 5865 5866 5867 5867 5868 5869 5869 5869 5869 5869 5869 5870 5870 5870
5869 5867 5865 5864 5862 5861 5860 5859 5858 5858 5858 5857 5858 5858 5858 5858 5859 5859 5859 5859 5860 5861 5862 5863 5863 5864 5864 5864 5864 5864 5865 5866 5866 5866 5867 5867 5867 5867 5867 5867 5867 5868 5868
5870 5868 5866 5865 5863 5861 5860 5859 5858 5857 5857 5857 5857 5857 5858 5858 5858 5857 5857 5858 5860 5861 5862 5862 5862 5863 5863 5863 5863 5864 5864 5864 5865 5865 5865 5865 5865 5865 5863 5862 5864 5866 5867
5871 5869 5867 5865 5864 5862 5860 5859 5857 5856 5856 5856 5856 5857 5858 5858 5857 5856 5856 5857 5859 5861 5861 5862 5862 5863 5863 5863 5863 5863 5863 5864 5864 5864 5864 5864 5864 5863 5861 5860 5862 5864 5865
5873 5871 5869 5867 5865 5863 5862 5860 5858 5857 5856 5857 5857 5858 5858 5858 5858 5858 5857 5858 5860 5861 5861 5862 5862 5862 5862 5862 5863 5863 5863 5863 5863 5863 5863 5863 5862 5862 5860 5860 5861 5863 5864
5874 5872 5870 5868 5866 5865 5863 5861 5859 5858 5857 5857 5858 5859 5859 5859 5859 5859 5859 5859 5860 5860 5861 5862 5862 5862 5862 5862 5862 5862 5863 5862 5862 5862 5862 5861 5861 5861 5861 5861 5861 5862 5863
5876 5873 5871 5870 5868 5867 5866 5864 5862 5860 5859 5859 5859 5860 5860 5860 5860 5860 5860 5860 5860 5861 5861 5861 5862 5862 5863 5863 5862 5862 5862 5861 5861 5861 5861 5860 5860 5860 5860 5861 5861 5861 5862
5877 5875 5873 5872 5870 5869 5868 5866 5865 5863 5862 5861 5861 5861 5862 5862 5861 5861 5860 5860 5861 5861 5861 5862 5862 5862 5862 5862 5862 5862 5861 5860 5860 5860 5860 5859 5859 5859 5859 5860 5860 5860 5860
5879 5877 5875 5874 5872 5871 5869 5868 5867 5866 5865 5864 5864 5864 5864 5863 5863 5862 5862 5861 5861 5862 5862 5862 5861 5861 5862 5862 5862 5861 5860 5859 5859 5858 5858 5858 5858 5858 5858 5858 5859 5859 5859
5881 5879 5877 5876 5874 5873 5871 5870 5869 5868 5867 5867 5866 5866 5865 5865 5864 5863 5863 5863 5862 5862 5862 5862 5861 5862 5862 5862 5861 5861 5860 5859 5858 5857 5857 5857 5857 5857 5857 5857 5857 5857 5857
5882 5880 5879 5877 5876 5875 5873 5872 5871 5870 5869 5869 5868 5867 5867 5866 5865 5864 5864 5863 5863 5862 5862 5862 5862 5862 5862 5861 5861 5860 5860 5859 5858 5857 5857 5857 5857 5856 5855 5855 5856 5856 5855
5883 5882 5880 5879 5878 5876 5875 5874 5873 5872 5871 5870 5869 5869 5868 5867 5866 5865 5865 5864 5864 5863 5863 5862 5862 5862 5861 5861 5860 5860 5859 5858 5857 5857 5856 5856 5855 5855 5854 5854 5854 5854 5853
5885 5883 5882 5881 5879 5878 5877 5876 5875 5873 5872 5872 5871 5870 5869 5868 5867 5867 5866 5865 5864 5864 5863 5863 5862 5861 5861 5860 5860 5860 5859 5858 5857 5856 5856 5855 5854 5854 5853 5852 5852 5852 5851
5887 5885 5883 5882 5880 5879 5878 5877 5876 5875 5874 5873 5872 5871 5870 5869 5868 5868 5867 5866 5865 5864 5864 5863 5862 5861 5860 5860 5859 5859 5859 5858 5857 5856 5855 5854 5853 5852 5852 5851 5850 5850 5849
5888 5886 5885 5883 5882 5881 5880 5878 5878 5876 5875 5874 5873 5872 5871 5870 5869 5868 5867 5866 5865 5865 5864 5863 5861 5860 5860 5859 5858 5858 5857 5857 5856 5855 5854 5853 5852 5851 5850 5849 5848 5847 5847
5889 5888 5886 5885 5883 5882 5881 5880 5879 5877 5876 5875 5874 5873 5871 5870 5869 5868 5867 5866 5865 5864 5863 5862 5861 5860 5859 5858 5857 5857 5856 5855 5854 5853 5852 5851 5850 5849 5848 5847 5846 5845 5844
5890 5889 5887 5886 5885 5883 5882 5881 5880 5878 5877 5876 5874 5873 5872 5871 5869 5868 5867 5866 5865 5864 5862 5861 5860 5859 5858 5857 5856 5855 5854 5854 5852 5851 5850 5848 5848 5847 5846 5844 5843 5842 5841
5890 5889 5888 5887 5886 5884 5883 5881 5880 5879 5877 5876 5875 5874 5872 5871 5869 5868 5866 5865 5864 5862 5861 5860 5859 5858 5857 5856 5855 5854 5853 5851 5850 5849 5847 5846 5845 5844 5843 5841 5840 5838 5837
5890 5889 5888 5887 5886 5884 5883 5882 5880 5879 5877 5876 5874 5873 5871 5870 5868 5867 5865 5863 5862 5861 5860 5859 5858 5856 5855 5854 5853 5851 5850 5849 5848 5846 5845 5844 5842 5841 5840 5838 5837 5835 5833
5890 5889 5888 5887 5886 5884 5883 5881 5880 5878 5877 5875 5874 5872 5870 5869 5867 5865 5864 5862 5861 5860 5858 5857 5855 5854 5853 5852 5850 5849 5848 5846 5844 5843 5842 5841 5839 5837 5836 5834 5833 5831 5830
5890 5889 5888 5887 5885 5884 5882 5881 5879 5878 5876 5875 5873 5871 5869 5867 5866 5864 5862 5860 5859 5858 5856 5855 5853 5851 5850 5849 5847 5846 5844 5843 5841 5840 5838 5837 5835 5833 5831 5830 5828 5827 5825